THOR ABLESTAR DEB, 136

Orbit data source: Space-Track

THOR ABLESTAR DEB, 136 is space debris in LEO originally from a launch on Thu, 29 Jun 1961 UTC launched from the Air Force Eastern Test Range (AFETR). Debris objects in space refer to the collection of defunct objects orbiting the Earth. Examples of debris include non-operational satellites, rocket bodies, and fragments generated from explosions, collisions, or faulty payload assembly.

Loading next visibility...
Identifier
136, 1961-015W
Orbit
LEO
Country
Flag of USUS
Related business
Manufacturer
Unknown
Mission
Spacecraft
Bus & Motor
Unknown
Mass
Unknown
Launch date (UTC)
1961-06-29 (65 years ago)
Launch vehicle
Unknown
Launch site
Air Force Eastern Test Range (AFETR)
Object type
Payload
Rocket body
Debris
Shape & HBR
Unknown shape, 0.4 m
Radar Cross Section
Medium (>0.1 m² and <1 m²)

Expand to show TLE details & history
Last TLE update: 1 day ago

TLE from 1 day ago
0 THOR ABLESTAR DEB
1   136U 61015W   26171.39199013  .00000861  00000-0  28312-3 0  9999
2   136  67.5287 272.5813 0041593  24.7630 335.5465 14.42140619357221
Epoch: 2026-06-20T09:24Z
TLE epoch observation values (Epoch: 2026-06-20T09:24:27.947Z)
Latitude
-0°
Longitude
-137.14242°
Altitude
726.641 km
Speed
7.506 km/s
True Right ascension
18h 10m 19s
True Declination
0° 00' 00"
Sunlit
Object was in full shadow at epoch
Visualization orbit readout
Latitude
Unknown
Longitude
Unknown
Altitude
Unknown
Speed
Unknown
Apparent Right ascension
Unknown
Apparent Declination
Unknown
Sunlit
N/A
Visualization observer readout
Local Sidereal Time
23:32:23
Azimuth
Unknown
Elevation
Unknown
Doppler factor
Unknown
Orbital elements
Apogee altitude
779.351 km
Perigee altitude
720.057 km
Semi-major axis
7,127.841 km
Eccentricity
0.00416
Inclination
67.5287°
RAAN
272.5813°
Arg. of periapsis
24.763°
True anomaly
335.34826°
Mean anomaly
335.5465°
Eccentric anomaly
335.44748°
Mean motion
3.60667 °/min
Orbital period
99.82 mins
BSTAR
0.00028312
Loading maneuver chart data...
Computing Atmospheric mass density...
Loading historical data...
Loading historical data...
Loading historical data...
Loading historical data...
Loading historical data...
Loading historical data...
Loading historical data...

Documentation

Showing up to 5 results
|